User: anonymous   Login
Location: Medlow Airstrip Trail, Medlow Bath NSW 2780, Australia
(33.6682°S, 150.3233°E)
Time: 19:22:24
(UTC+11:00)
Language:

Altair - Orbit

View from above orbital plane
View from above orbital plane
View from above satellite
View from above satellite

Ground track
Ground track

The orbit data is extracted from the following two-line orbital elements,

1    50U 60009B   19294.90060786 -.00000055 +00000-0 +28718-3 0  9991
2    50 047.2291 144.7599 0113649 331.9285 027.5409 12.20109215640972
Epoch (UTC): 21 October 2019 21:36:52
Eccentricity: 0.0113649
inclination: 47.2291°
perigee height: 1501 km
apogee height: 1682 km
right ascension of ascending node: 144.7599°
argument of perigee: 331.9285°
revolutions per day: 12.20109215
mean anomaly at epoch: 27.5409°
orbit number at epoch: 64097

The dashed part of the orbit path shows where the satellite is in the earth's shadow,  

DLR